Antigo, WI

3:54 PM CST on November 21, 2019 (GMT -0600)
Langlade County

Weather History for KAIG - October, 2019

Change the Weather History Date:

Sunday, October 20, 2019

  Actual Average Record
Temperature  
Mean Temperature 51 °F -  
Max Temperature 61 °F 52 °F 82 °F (1953)
Min Temperature 41 °F 30 °F 14 °F (1992)
Degree Days  
Heating Degree Days 14    
Growing Degree Days 1 (Base 50)    
Moisture  
Dew Point 40 °F    
Average Humidity 80    
Maximum Humidity 100    
Minimum Humidity 33    
Precipitation  
Precipitation 0.00 in - - ()
Sea Level Pressure  
Sea Level Pressure 29.88 in    
Wind  
Wind Speed 2 mph ()    
Max Wind Speed 9 mph    
Max Gust Speed -    
Visibility 7.4 miles    
Events Fog    
Averages and records for this station are not official NWS values.
T = Trace of Precipitation, MM = Missing Value Source: Averaged Metar Reports

Daily Weather History Graph

Daily Weather History Graph

Search for Another Location

Airport or City:

Astronomy

Oct. 20, 2019 Rise Set
Actual Time 7:18 AM CDT 6:03 PM CDT
Civil Twilight 6:48 AM CDT 6:32 PM CDT
Nautical Twilight 6:14 AM CDT 7:07 PM CDT
Astronomical Twilight 5:40 AM CDT 7:41 PM CDT
Moon 11:01 PM CDT (10/20) 1:57 PM CDT (10/20)
Length of Visible Light 11h 44m
Length of Day
10h 44m
Waning Gibbous, 59% of the Moon is Illuminated
Oct 20
Waning Gibbous
Oct 21
Last Quarter
Oct 27
New
Nov 4
First Quarter
Nov 12
Full

Hourly Weather History & Observations

Time (CDT) Temp. Windchill Dew Point Humidity Pressure Visibility Wind Dir Wind Speed Gust Speed Precip Events Conditions
12:15 AM 45.5 °F - 45.0 °F 98% 29.76 in 10.0 mi Calm Calm - N/A   Overcast
12:35 AM 45.5 °F 43.2 °F 45.0 °F 98% 29.75 in 10.0 mi West 4.6 mph - N/A   Overcast
12:55 AM 45.1 °F 42.8 °F 45.0 °F 99% 29.76 in 10.0 mi WNW 4.6 mph - N/A   Overcast
1:15 AM 45.1 °F - 45.0 °F 99% 29.76 in 10.0 mi Calm Calm - N/A   Overcast
1:35 AM 45.1 °F 42.8 °F 45.1 °F 100% 29.76 in 7.0 mi WNW 4.6 mph - N/A   Overcast
1:55 AM 45.3 °F 43.0 °F 45.3 °F 100% 29.76 in 7.0 mi West 4.6 mph - N/A   Overcast
2:15 AM 45.1 °F 41.4 °F 45.1 °F 100% 29.78 in 5.0 mi WNW 6.9 mph - N/A   Overcast
2:35 AM 45.1 °F 42.8 °F 45.1 °F 100% 29.78 in 4.0 mi West 4.6 mph - N/A   Overcast
2:55 AM 45.1 °F 42.8 °F 45.1 °F 100% 29.78 in 2.0 mi West 4.6 mph - N/A   Overcast
3:15 AM 45.5 °F 42.5 °F 45.5 °F 100% 29.78 in 3.0 mi West 5.8 mph - N/A   Overcast
3:35 AM 45.1 °F 40.3 °F 45.1 °F 100% 29.78 in 4.0 mi WNW 9.2 mph - N/A   Overcast
3:55 AM 45.3 °F 41.1 °F 45.3 °F 100% 29.79 in 7.0 mi WNW 8.1 mph - N/A   Overcast
4:15 AM 45.3 °F 41.1 °F 44.8 °F 98% 29.80 in 10.0 mi West 8.1 mph - N/A   Overcast
4:35 AM 45.3 °F 41.6 °F 44.6 °F 97% 29.80 in 10.0 mi West 6.9 mph - N/A   Overcast
4:55 AM 44.8 °F 41.6 °F 44.1 °F 97% 29.81 in 10.0 mi NW 5.8 mph - N/A   Overcast
5:15 AM 44.2 °F 41.8 °F 43.7 °F 98% 29.81 in 10.0 mi WNW 4.6 mph - N/A   Overcast
5:35 AM 43.7 °F - 43.0 °F 97% 29.81 in 10.0 mi Calm Calm - N/A   Overcast
5:55 AM 43.0 °F - 42.4 °F 98% 29.82 in 10.0 mi Calm Calm - N/A   Overcast
6:15 AM 42.6 °F - 42.1 °F 98% 29.83 in 10.0 mi Calm Calm - N/A   Overcast
6:35 AM 42.3 °F - 41.9 °F 99% 29.83 in 10.0 mi Calm Calm - N/A   Overcast
6:55 AM 42.1 °F - 42.1 °F 100% 29.83 in 7.0 mi Calm Calm - N/A   Overcast
7:15 AM 41.9 °F - 41.9 °F 100% 29.84 in 3.0 mi Calm Calm - N/A   Overcast
7:35 AM 41.9 °F 40.0 °F 41.9 °F 100% 29.85 in 0.2 mi West 3.5 mph - N/A Fog Fog
7:55 AM 41.0 °F - 41.0 °F 100% 29.86 in 0.2 mi Calm Calm - N/A Fog Fog
8:15 AM 41.4 °F 39.4 °F 41.4 °F 100% 29.87 in 0.2 mi WSW 3.5 mph - N/A Fog Fog
8:35 AM 41.2 °F 38.2 °F 41.2 °F 100% 29.88 in 0.2 mi West 4.6 mph - N/A Fog Fog
8:55 AM 41.2 °F - 41.2 °F 100% 29.88 in 0.2 mi Calm Calm - N/A Fog Fog
9:15 AM 41.2 °F - 41.2 °F 100% 29.89 in 0.2 mi Calm Calm - N/A Fog Fog
9:35 AM 41.2 °F - 41.2 °F 100% 29.90 in 0.2 mi Calm Calm - N/A Fog Fog
9:55 AM 42.1 °F - 42.1 °F 100% 29.91 in 0.2 mi Calm Calm - N/A Fog Fog
10:15 AM 42.4 °F - 42.4 °F 100% 29.91 in 0.8 mi Calm Calm - N/A   Overcast
10:35 AM 43.9 °F - 43.9 °F 100% 29.91 in 1.2 mi Calm Calm - N/A   Overcast
10:55 AM 47.3 °F - 46.9 °F 99% 29.92 in 10.0 mi Calm Calm - N/A   Mostly Cloudy
11:15 AM 48.4 °F - 45.0 °F 88% 29.93 in 10.0 mi Calm Calm - N/A   Clear
11:35 AM 50.7 °F - 44.6 °F 80% 29.92 in 10.0 mi Calm Calm - N/A   Clear
11:55 AM 52.5 °F - 45.3 °F 76% 29.92 in 10.0 mi Calm Calm - N/A   Clear
12:15 PM 54.9 °F - 44.1 °F 67% 29.91 in 10.0 mi Calm Calm - N/A   Clear
12:35 PM 56.1 °F - 41.0 °F 57% 29.91 in 10.0 mi Calm Calm - N/A   Clear
12:55 PM 57.2 °F - 41.0 °F 55% 29.90 in 10.0 mi Calm Calm - N/A   Clear
1:15 PM 57.7 °F - 41.5 °F 55% 29.91 in 4.0 mi SSW 3.5 mph - N/A   Haze
1:35 PM 58.6 °F - 39.0 °F 48% 29.91 in 1.5 mi Calm Calm - N/A   Haze
1:55 PM 59.2 °F - 37.0 °F 44% 29.91 in 10.0 mi WSW 3.5 mph - N/A   Clear
2:15 PM 60.1 °F - 37.0 °F 42% 29.91 in 10.0 mi West 5.8 mph - N/A   Clear
2:35 PM 59.9 °F - 34.2 °F 38% 29.91 in 10.0 mi Calm Calm - N/A   Clear
2:55 PM 60.4 °F - 34.5 °F 38% 29.90 in 10.0 mi WSW 4.6 mph - N/A   Clear
3:15 PM 61.0 °F - 32.2 °F 34% 29.91 in 10.0 mi Calm Calm - N/A   Clear
3:35 PM 60.6 °F - 32.5 °F 35% 29.91 in 7.0 mi Calm Calm - N/A   Clear
3:55 PM 61.0 °F - 32.0 °F 34% 29.92 in 10.0 mi Calm Calm - N/A   Clear
4:15 PM 60.1 °F - 31.5 °F 34% 29.92 in 10.0 mi Calm Calm - N/A   Clear
4:35 PM 60.1 °F - 30.9 °F 33% 29.92 in 10.0 mi Calm Calm - N/A   Clear
4:55 PM 59.5 °F - 30.6 °F 33% 29.93 in 10.0 mi Calm Calm - N/A   Clear
5:15 PM 57.6 °F - 32.5 °F 39% 29.92 in 7.0 mi Calm Calm - N/A   Clear
5:35 PM 55.4 °F - 32.2 °F 41% 29.92 in 10.0 mi Calm Calm - N/A   Clear
5:55 PM 51.8 °F - 36.7 °F 56% 29.93 in 0.2 mi Calm Calm - N/A   Haze
6:15 PM 49.5 °F - 40.1 °F 70% 29.93 in 0.8 mi Calm Calm - N/A   Haze
6:35 PM 48.9 °F - 37.6 °F 65% 29.92 in 10.0 mi Calm Calm - N/A   Clear
6:55 PM 45.9 °F - 37.6 °F 73% 29.93 in 10.0 mi Calm Calm - N/A   Clear
7:15 PM 45.5 °F - 41.0 °F 84% 29.93 in 10.0 mi Calm Calm - N/A   Clear
7:35 PM 43.7 °F - 40.1 °F 87% 29.94 in 10.0 mi Calm Calm - N/A   Clear
7:55 PM 42.6 °F - 37.6 °F 82% 29.93 in 10.0 mi Calm Calm - N/A   Clear
8:15 PM 43.0 °F - 38.5 °F 84% 29.93 in 10.0 mi Calm Calm - N/A   Clear
8:35 PM 41.2 °F - 37.6 °F 87% 29.93 in 10.0 mi Calm Calm - N/A   Clear
8:55 PM 41.7 °F - 38.8 °F 89% 29.93 in 10.0 mi Calm Calm - N/A   Clear
9:15 PM 41.2 °F 39.2 °F 39.2 °F 93% 29.93 in 10.0 mi ENE 3.5 mph - N/A   Clear
9:35 PM 41.0 °F - 39.2 °F 93% 29.93 in 10.0 mi Calm Calm - N/A   Clear
9:55 PM 41.7 °F - 39.2 °F 91% 29.93 in 10.0 mi Calm Calm - N/A   Clear
10:15 PM 42.8 °F - 39.4 °F 88% 29.94 in 10.0 mi Calm Calm - N/A   Clear
10:35 PM 42.8 °F - 39.2 °F 87% 29.94 in 10.0 mi Calm Calm - N/A   Clear
10:55 PM 44.2 °F 41.0 °F 37.0 °F 76% 29.94 in 10.0 mi SE 5.8 mph - N/A   Clear
11:15 PM 45.0 °F 42.6 °F 36.7 °F 73% 29.94 in 10.0 mi SE 4.6 mph - N/A   Clear
11:35 PM 43.7 °F 42.1 °F 38.3 °F 81% 29.93 in 10.0 mi ESE 3.5 mph - N/A   Clear
11:55 PM 43.0 °F 40.3 °F 38.7 °F 85% 29.93 in 10.0 mi ESE 4.6 mph - N/A   Clear